Location: Central Falls
(41.8900°N, 71.3929°W)
Time: 03:35:38
(UTC+00:00)

Vanguard 2 Rocket - Pass Details

Date: 09 December 2023
Orbit: 555 x 3309 km, 32.9° (Epoch: 01 March)

Event Time Altitude Azimuth Distance (km) Brightness Sun altitude
Rises 17:40:09 0° 230° (SW) 5,414 11.7 23.7°
Reaches altitude 10° 17:43:21 10° 225° (SW) 4,734 11.7 23.5°
Maximum altitude 17:57:15 51° 155° (SSE) 3,481 10.7 22.7°
Drops below altitude 10° 18:16:04 10° 88° (E) 6,261 11.0 21.4°
Sets 18:21:03 0° 84° (E) 7,214 11.2 21.0°
